Weather History for Fayetteville, AR

Change the Weather History Date:

Monday, August 12, 2013

  Actual Average Record
Temperature  
Mean Temperature 78 °F 78 °F  
Max Temperature 86 °F 90 °F 101 °F (1954)
Min Temperature 70 °F 66 °F 46 °F (1967)
Cooling Degree Days 13 13  
Month to date cooling degree days 166 156  
Year to date cooling degree days 947 905  
Since 1 June cooling degree days 811 792  
Growing Degree Days 27 (Base 50)    
Moisture  
Dew Point 71 °F    
Average Humidity 83    
Maximum Humidity 100    
Minimum Humidity 65    
Precipitation  
Precipitation T in 0.11 in 1.98 in (1957)
Month to date precipitation 2.62 1.21  
Year to date precipitation 30.87 29.86  
Sea Level Pressure  
Sea Level Pressure 30.02 in    
Wind  
Wind Speed 3 mph (NE)    
Max Wind Speed 26 mph    
Max Gust Speed 32 mph    
Visibility 9 miles    
Events Rain , Thunderstorm    
T = Trace of Precipitation, MM = Missing Value Source: NWS Daily Summary

Daily Weather History Graph

Daily Weather History Graph

Search for Another Location

Airport:

Trip Planner

Search our weather history database for the weather conditions in past years. The results will help you decide how hot, cold, wet, or windy it might be!

Date:

Astronomy

Aug. 12, 2013 Rise Set
Actual Time 6:32 AM CDT 8:09 PM CDT
Civil Twilight 6:05 AM CDT 8:37 PM CDT
Nautical Twilight 5:32 AM CDT 9:10 PM CDT
Astronomical Twilight 4:57 AM CDT 9:44 PM CDT
Moon 12:11 PM CDT (8/12) 11:16 PM CDT (8/12)
Length of Visible Light 14h 31m
Length of Day
13h 36m
Waxing Crescent, 31% of the Moon is Illuminated
Aug 12
Waxing Crescent
Aug 14
First Quarter
Aug 20
Full
Aug 28
Last Quarter
Sep 5
New

Hourly Weather History & Observations

Time (CDT) Temp. Heat Index Dew Point Humidity Pressure Visibility Wind Dir Wind Speed Gust Speed Precip Events Conditions
12:53 AM 73.0 °F - 72.0 °F 96% 30.03 in 8.0 mi Calm Calm - N/A   Clear
1:53 AM 72.0 °F - 71.1 °F 97% 30.02 in 7.0 mi Calm Calm - N/A   Clear
2:53 AM 71.1 °F - 70.0 °F 96% 30.01 in 4.0 mi Calm Calm - N/A   Clear
3:53 AM 70.0 °F - 70.0 °F 100% 30.00 in 4.0 mi Calm Calm - N/A   Partly Cloudy
4:53 AM 70.0 °F - 69.1 °F 97% 29.99 in 6.0 mi SE 3.5 mph - N/A   Clear
5:53 AM 70.0 °F - 69.1 °F 97% 29.99 in 6.0 mi Calm Calm - N/A   Clear
6:53 AM 70.0 °F - 69.1 °F 97% 30.00 in 4.0 mi Calm Calm - N/A   Mostly Cloudy
7:53 AM 72.0 °F - 71.1 °F 97% 30.01 in 6.0 mi Calm Calm - N/A   Partly Cloudy
8:53 AM 75.9 °F - 72.0 °F 87% 30.03 in 9.0 mi Calm Calm - N/A   Partly Cloudy
9:53 AM 82.0 °F 87.4 °F 73.0 °F 74% 30.02 in 10.0 mi West 8.1 mph - N/A   Clear
10:53 AM 84.0 °F 90.2 °F 73.0 °F 69% 30.01 in 10.0 mi Variable 6.9 mph - N/A   Clear
11:53 AM 84.0 °F 89.6 °F 72.0 °F 67% 30.02 in 10.0 mi West 9.2 mph - N/A   Mostly Cloudy
12:20 PM 82.4 °F 87.2 °F 71.6 °F 70% 30.06 in 10.0 mi WNW 6.9 mph - N/A Thunderstorm Mostly Cloudy
12:53 PM 73.9 °F - 68.0 °F 82% 30.04 in 10.0 mi North 23.0 mph 32.2 mph N/A Thunderstorm Thunderstorm
1:00 PM 73.4 °F - 68.0 °F 83% 30.08 in 10.0 mi North 10.4 mph 27.6 mph N/A Thunderstorm Thunderstorm
1:31 PM 73.4 °F - 68.0 °F 83% 30.09 in 10.0 mi North 5.8 mph 16.1 mph N/A   Overcast
1:44 PM 75.2 °F - 69.8 °F 83% 30.09 in 10.0 mi Variable 3.5 mph - 0.00 in Rain , Thunderstorm Light Rain
1:53 PM 75.0 °F - 69.1 °F 82% 30.04 in 10.0 mi ENE 4.6 mph - 0.00 in Thunderstorm Mostly Cloudy
2:03 PM 75.2 °F - 69.8 °F 83% 30.08 in 10.0 mi ENE 6.9 mph - N/A   Mostly Cloudy
2:36 PM 75.2 °F - 69.8 °F 83% 30.07 in 10.0 mi ENE 4.6 mph - 0.00 in   Scattered Clouds
2:53 PM 75.9 °F - 69.1 °F 79% 30.03 in 10.0 mi NE 4.6 mph - 0.00 in   Mostly Cloudy
3:53 PM 77.0 °F - 70.0 °F 79% 29.99 in 10.0 mi South 3.5 mph - 0.00 in Rain Light Rain
4:53 PM 80.1 °F 83.2 °F 70.0 °F 71% 29.95 in 10.0 mi Calm Calm - 0.00 in   Clear
5:53 PM 81.0 °F 84.1 °F 69.1 °F 67% 29.97 in 10.0 mi Calm Calm - N/A   Clear
6:53 PM 81.0 °F 84.9 °F 71.1 °F 72% 29.96 in 10.0 mi Calm Calm - N/A   Clear
7:53 PM 78.1 °F - 71.1 °F 79% 29.96 in 10.0 mi Calm Calm - N/A   Scattered Clouds
8:53 PM 75.0 °F - 72.0 °F 90% 29.99 in 10.0 mi Calm Calm - N/A   Scattered Clouds
9:04 PM 75.2 °F - 71.6 °F 89% 30.03 in 10.0 mi Calm Calm - N/A   Mostly Cloudy
9:35 PM 73.4 °F - 71.6 °F 94% 30.05 in 10.0 mi Calm Calm - N/A   Scattered Clouds
9:53 PM 73.0 °F - 72.0 °F 96% 30.01 in 10.0 mi SSE 3.5 mph - N/A   Scattered Clouds
10:02 PM 73.4 °F - 71.6 °F 94% 30.05 in 10.0 mi Calm Calm - N/A   Mostly Cloudy
10:20 PM 73.4 °F - 71.6 °F 94% 30.05 in 10.0 mi Calm Calm - N/A   Scattered Clouds
10:53 PM 72.0 °F - 71.1 °F 97% 29.99 in 10.0 mi Calm Calm - N/A   Clear
11:53 PM 71.1 °F - 70.0 °F 96% 29.98 in 10.0 mi South 4.6 mph - N/A   Clear